Hourly Data Report for March 31, 2005

TORONTO CITY
ONTARIO

43°40'00.000" N
79°24'00.000" W
112.50 m
6158355
71508
XTO

Download Data

Hourly Data (March 2005)
Hourly Data Report for March 31, 2005
TIME
LST
Temp Definition
°C
Dew Point Definition
°C
Rel Hum Definition
%
Precip. Amount Definition
mm

Wind Dir Definition
10's deg

Wind Spd Definition
km/h
Visibility Definition
km
Stn Press Definition
kPa
Hmdx Definition


Wind Chill Definition


Weather Definition


00:00 6.3 1.6 72   LegendMM LegendMM   99.74     LegendNANA
01:00 6.3 1.9 73   LegendMM LegendMM   99.71     LegendNANA
02:00 6.2 2.0 74   LegendMM LegendMM   99.65     LegendNANA
03:00 5.8 2.0 77   LegendMM LegendMM   99.61     LegendNANA
04:00 6.6 2.2 73   LegendMM LegendMM   99.57     LegendNANA
05:00 7.0 2.5 73   LegendMM LegendMM   99.52     LegendNANA
06:00 7.3 2.8 73   LegendMM LegendMM   99.51     LegendNANA
07:00 7.8 3.3 73   LegendMM LegendMM   99.47     LegendNANA
08:00 8.7 3.8 71   LegendMM LegendMM   99.51     LegendNANA
09:00 10.3 4.2 66   LegendMM LegendMM   99.40     LegendNANA
10:00 10.9 4.5 65   LegendMM LegendMM   99.33     LegendNANA
11:00 9.6 4.6 71   LegendMM LegendMM   99.37     LegendNANA
12:00 9.0 6.9 87   LegendMM LegendMM   99.19     LegendNANA
13:00 9.3 7.5 89   LegendMM LegendMM   99.21     LegendNANA
14:00 10.9 8.5 85   LegendMM LegendMM   99.13     LegendNANA
15:00 11.4 8.5 82   LegendMM LegendMM   99.09     LegendNANA
16:00 11.3 9.5 89   LegendMM LegendMM   99.11     LegendNANA
17:00 11.6 8.1 79   LegendMM LegendMM   99.12     LegendNANA
18:00 10.7 6.6 76   LegendMM LegendMM   99.19     LegendNANA
19:00 13.8 5.7 58   LegendMM LegendMM   99.29     LegendNANA
20:00 12.8 5.8 62   LegendMM LegendMM   99.39     LegendNANA
21:00 11.8 6.3 69   LegendMM LegendMM   99.44     LegendNANA
22:00 10.7 6.0 73   LegendMM LegendMM   99.53     LegendNANA
23:00                      

Notes on Data Quality.

Legend

  • E = Estimated
  • M = Missing
  • NA = Not Available*
  • [empty] = Indicates an unobserved value
Date modified: